Year,Month,Day,Hour,Minute,Value (Times are PST for temperature in C)
2008,11,20,00,00,8.10
2008,11,20,00,01,8.20
2008,11,20,00,02,8.20
2008,11,20,00,03,8.20
2008,11,20,00,04,8.20
2008,11,20,00,05,8.20
2008,11,20,00,06,8.20
2008,11,20,00,07,8.20
2008,11,20,00,08,8.20
2008,11,20,00,09,8.20
2008,11,20,00,10,8.20
2008,11,20,00,11,8.10
2008,11,20,00,12,8.10
2008,11,20,00,13,8.10
2008,11,20,00,14,8.00
2008,11,20,00,15,7.90
2008,11,20,00,16,7.90
2008,11,20,00,17,7.90
2008,11,20,00,18,7.80
2008,11,20,00,19,7.80
2008,11,20,00,20,7.80
2008,11,20,00,21,7.70
2008,11,20,00,22,7.70
2008,11,20,00,23,7.70
2008,11,20,00,24,7.70
2008,11,20,00,25,7.60
2008,11,20,00,26,7.60
2008,11,20,00,27,7.50
2008,11,20,00,28,7.50
2008,11,20,00,29,7.40
2008,11,20,00,30,7.40
2008,11,20,00,31,7.40
2008,11,20,00,32,7.40
2008,11,20,00,33,7.40
2008,11,20,00,34,7.40
2008,11,20,00,35,7.40
2008,11,20,00,36,7.40
2008,11,20,00,37,7.40
2008,11,20,00,38,7.40
2008,11,20,00,39,7.40
2008,11,20,00,40,7.40
2008,11,20,00,41,7.40
2008,11,20,00,42,7.40
2008,11,20,00,43,7.30
2008,11,20,00,44,7.30
2008,11,20,00,45,7.30
2008,11,20,00,46,7.20
2008,11,20,00,47,7.20
2008,11,20,00,48,7.20
2008,11,20,00,49,7.20
2008,11,20,00,50,7.20
2008,11,20,00,51,7.20
2008,11,20,00,52,7.20
2008,11,20,00,53,7.20
2008,11,20,00,54,7.20
2008,11,20,00,55,7.20
2008,11,20,00,56,7.20
2008,11,20,00,57,7.20
2008,11,20,00,58,7.10
2008,11,20,00,59,7.10
2008,11,20,01,00,7.10
2008,11,20,01,01,7.10
2008,11,20,01,02,7.10
2008,11,20,01,03,7.00
2008,11,20,01,04,7.00
2008,11,20,01,05,7.00
2008,11,20,01,06,7.00
2008,11,20,01,07,6.90
2008,11,20,01,08,6.90
2008,11,20,01,09,6.90
2008,11,20,01,10,6.90
2008,11,20,01,11,6.90
2008,11,20,01,12,6.90
2008,11,20,01,13,6.90
2008,11,20,01,14,6.90
2008,11,20,01,15,6.90
2008,11,20,01,16,6.90
2008,11,20,01,17,6.80
2008,11,20,01,18,6.80
2008,11,20,01,19,6.80
2008,11,20,01,20,6.80
2008,11,20,01,21,6.80
2008,11,20,01,22,6.80
2008,11,20,01,23,6.80
2008,11,20,01,24,6.80
2008,11,20,01,25,6.80
2008,11,20,01,26,6.80
2008,11,20,01,27,6.80
2008,11,20,01,28,6.80
2008,11,20,01,29,6.80
2008,11,20,01,30,6.80
2008,11,20,01,31,6.80
2008,11,20,01,32,6.80
2008,11,20,01,33,6.80
2008,11,20,01,34,6.80
2008,11,20,01,35,6.80
2008,11,20,01,36,6.80
2008,11,20,01,37,6.80
2008,11,20,01,38,6.90
2008,11,20,01,39,6.80
2008,11,20,01,40,6.80
2008,11,20,01,41,6.80
2008,11,20,01,42,6.80
2008,11,20,01,43,6.80
2008,11,20,01,44,6.80
2008,11,20,01,45,6.80
2008,11,20,01,46,6.80
2008,11,20,01,47,6.80
2008,11,20,01,48,6.80
2008,11,20,01,49,6.80
2008,11,20,01,50,6.80
2008,11,20,01,51,6.80
2008,11,20,01,52,6.80
2008,11,20,01,53,6.80
2008,11,20,01,54,6.80
2008,11,20,01,55,6.70
2008,11,20,01,56,6.70
2008,11,20,01,57,6.70
2008,11,20,01,58,6.70
2008,11,20,01,59,6.70
2008,11,20,02,00,6.70
2008,11,20,02,01,6.60
2008,11,20,02,02,6.50
2008,11,20,02,03,6.50
2008,11,20,02,04,6.40
2008,11,20,02,05,6.30
2008,11,20,02,06,6.20
2008,11,20,02,07,6.10
2008,11,20,02,08,6.10
2008,11,20,02,09,6.00
2008,11,20,02,10,5.90
2008,11,20,02,11,5.90
2008,11,20,02,12,5.80
2008,11,20,02,13,5.80
2008,11,20,02,14,5.70
2008,11,20,02,15,5.70
2008,11,20,02,16,5.70
2008,11,20,02,17,5.80
2008,11,20,02,18,5.90
2008,11,20,02,19,6.10
2008,11,20,02,20,6.20
2008,11,20,02,21,6.20
2008,11,20,02,22,6.30
2008,11,20,02,23,6.30
2008,11,20,02,24,6.30
2008,11,20,02,25,6.30
2008,11,20,02,26,6.30
2008,11,20,02,27,6.40
2008,11,20,02,28,6.50
2008,11,20,02,29,6.60
2008,11,20,02,30,6.60
2008,11,20,02,31,6.70
2008,11,20,02,32,6.70
2008,11,20,02,33,6.70
2008,11,20,02,34,6.80
2008,11,20,02,35,6.90
2008,11,20,02,36,6.90
2008,11,20,02,37,7.00
2008,11,20,02,38,7.10
2008,11,20,02,39,7.10
2008,11,20,02,40,7.20
2008,11,20,02,41,7.20
2008,11,20,02,42,7.30
2008,11,20,02,43,7.30
2008,11,20,02,44,7.30
2008,11,20,02,45,7.30
2008,11,20,02,46,7.40
2008,11,20,02,47,7.40
2008,11,20,02,48,7.40
2008,11,20,02,49,7.40
2008,11,20,02,50,7.40
2008,11,20,02,51,7.40
2008,11,20,02,52,7.40
2008,11,20,02,53,7.30
2008,11,20,02,54,7.30
2008,11,20,02,55,7.30
2008,11,20,02,56,7.30
2008,11,20,02,57,7.30
2008,11,20,02,58,7.30
2008,11,20,02,59,7.30
2008,11,20,03,00,7.30
2008,11,20,03,01,7.20
2008,11,20,03,02,7.20
2008,11,20,03,03,7.20
2008,11,20,03,04,7.20
2008,11,20,03,05,7.20
2008,11,20,03,06,7.20
2008,11,20,03,07,7.20
2008,11,20,03,08,7.20
2008,11,20,03,09,7.20
2008,11,20,03,10,7.20
2008,11,20,03,11,7.20
2008,11,20,03,12,7.30
2008,11,20,03,13,7.30
2008,11,20,03,14,7.40
2008,11,20,03,15,7.50
2008,11,20,03,16,7.60
2008,11,20,03,17,7.60
2008,11,20,03,18,7.70
2008,11,20,03,19,7.70
2008,11,20,03,20,7.70
2008,11,20,03,21,7.70
2008,11,20,03,22,7.70
2008,11,20,03,23,7.80
2008,11,20,03,24,7.80
2008,11,20,03,25,7.80
2008,11,20,03,26,7.80
2008,11,20,03,27,7.80
2008,11,20,03,28,7.80
2008,11,20,03,29,7.80
2008,11,20,03,30,7.80
2008,11,20,03,31,7.80
2008,11,20,03,32,7.80
2008,11,20,03,33,7.80
2008,11,20,03,34,7.90
2008,11,20,03,35,7.90
2008,11,20,03,36,7.90
2008,11,20,03,37,7.80
2008,11,20,03,38,7.80
2008,11,20,03,39,7.80
2008,11,20,03,40,7.80
2008,11,20,03,41,7.80
2008,11,20,03,42,7.90
2008,11,20,03,43,8.00
2008,11,20,03,44,8.00
2008,11,20,03,45,8.10
2008,11,20,03,46,8.10
2008,11,20,03,47,8.10
2008,11,20,03,48,8.10
2008,11,20,03,49,8.10
2008,11,20,03,50,8.00
2008,11,20,03,51,8.00
2008,11,20,03,52,8.00
2008,11,20,03,53,8.00
2008,11,20,03,54,8.00
2008,11,20,03,55,7.90
2008,11,20,03,56,7.90
2008,11,20,03,57,7.90
2008,11,20,03,58,7.80
2008,11,20,03,59,7.80
2008,11,20,04,00,7.80
2008,11,20,04,01,7.80
2008,11,20,04,02,7.70
2008,11,20,04,03,7.70
2008,11,20,04,04,7.70
2008,11,20,04,05,7.70
2008,11,20,04,06,7.70
2008,11,20,04,07,7.70
2008,11,20,04,08,7.80
2008,11,20,04,09,7.70
2008,11,20,04,10,7.60
2008,11,20,04,11,7.50
2008,11,20,04,12,7.40
2008,11,20,04,13,7.40
2008,11,20,04,14,7.50
2008,11,20,04,15,7.60
2008,11,20,04,16,7.70
2008,11,20,04,17,7.70
2008,11,20,04,18,7.80
2008,11,20,04,19,7.80
2008,11,20,04,20,7.70
2008,11,20,04,21,7.70
2008,11,20,04,22,7.60
2008,11,20,04,23,7.50
2008,11,20,04,24,7.50
2008,11,20,04,25,7.50
2008,11,20,04,26,7.60
2008,11,20,04,27,7.70
2008,11,20,04,28,7.70
2008,11,20,04,29,7.70
2008,11,20,04,30,7.80
2008,11,20,04,31,7.80
2008,11,20,04,32,7.80
2008,11,20,04,33,7.80
2008,11,20,04,34,7.90
2008,11,20,04,35,8.10
2008,11,20,04,36,8.20
2008,11,20,09,02,7.50
2008,11,20,09,03,7.50
2008,11,20,09,04,7.50
2008,11,20,09,05,7.40
2008,11,20,09,06,7.40
2008,11,20,09,07,7.40
2008,11,20,09,08,7.50
2008,11,20,09,09,7.50
2008,11,20,09,10,7.60
2008,11,20,09,11,7.60
2008,11,20,09,12,7.70
2008,11,20,09,13,7.70
2008,11,20,09,14,7.70
2008,11,20,09,15,7.70
2008,11,20,09,16,7.70
2008,11,20,09,17,7.70
2008,11,20,09,18,7.70
2008,11,20,09,19,7.60
2008,11,20,09,20,7.50
2008,11,20,09,21,7.50
2008,11,20,09,22,7.40
2008,11,20,09,23,7.30
2008,11,20,09,24,7.30
2008,11,20,09,25,7.20
2008,11,20,09,26,7.20
2008,11,20,09,27,7.20
2008,11,20,09,28,7.20
2008,11,20,09,29,7.20
2008,11,20,09,30,7.20
2008,11,20,09,31,7.10
2008,11,20,09,32,7.00
2008,11,20,09,33,7.00
2008,11,20,09,34,6.90
2008,11,20,09,35,6.80
2008,11,20,09,36,6.70
2008,11,20,09,37,6.60
2008,11,20,09,38,6.60
2008,11,20,09,39,6.50
2008,11,20,09,40,6.50
2008,11,20,09,41,6.40
2008,11,20,09,42,6.40
2008,11,20,09,43,6.30
2008,11,20,09,44,6.30
2008,11,20,09,45,6.30
2008,11,20,09,46,6.30
2008,11,20,09,47,6.30
2008,11,20,09,48,6.30
2008,11,20,09,49,6.20
2008,11,20,09,50,6.20
2008,11,20,09,51,6.20
2008,11,20,09,52,6.20
2008,11,20,09,53,6.30
2008,11,20,09,54,6.30
2008,11,20,09,55,6.30
2008,11,20,09,56,6.30
2008,11,20,09,57,6.30
2008,11,20,09,58,6.30
2008,11,20,09,59,6.40
2008,11,20,10,00,6.40
2008,11,20,10,01,6.40
2008,11,20,10,02,6.30
2008,11,20,10,03,6.30
2008,11,20,10,04,6.20
2008,11,20,10,05,6.20
2008,11,20,10,06,6.10
2008,11,20,10,07,6.00
2008,11,20,10,08,5.90
2008,11,20,10,09,5.90
2008,11,20,10,10,5.90
2008,11,20,10,11,5.80
2008,11,20,10,12,5.70
2008,11,20,10,13,5.60
2008,11,20,10,14,5.50
2008,11,20,10,15,5.50
2008,11,20,10,16,5.40
2008,11,20,10,17,5.30
2008,11,20,10,18,5.30
2008,11,20,10,19,5.30
2008,11,20,10,20,5.30
2008,11,20,10,21,5.30
2008,11,20,10,22,5.30
2008,11,20,10,23,5.30
2008,11,20,10,24,5.40
2008,11,20,10,25,5.40
2008,11,20,10,26,5.50
2008,11,20,10,27,5.60
2008,11,20,10,28,5.70
2008,11,20,10,29,5.80
2008,11,20,10,30,5.80
2008,11,20,10,31,5.90
2008,11,20,10,32,6.00
2008,11,20,10,33,6.00
2008,11,20,10,34,6.10
2008,11,20,10,35,6.10
2008,11,20,10,36,6.20
2008,11,20,10,37,6.30
2008,11,20,10,38,6.30
2008,11,20,10,39,6.40
2008,11,20,10,40,6.40
2008,11,20,10,41,6.40
2008,11,20,10,42,6.40
2008,11,20,10,43,6.50
2008,11,20,10,44,6.50
2008,11,20,10,45,6.50
2008,11,20,10,46,6.60
2008,11,20,10,47,6.60
2008,11,20,10,48,6.60
2008,11,20,10,49,6.60
2008,11,20,10,50,6.60
2008,11,20,10,51,6.60
2008,11,20,10,52,6.60
2008,11,20,10,53,6.50
2008,11,20,10,54,6.50
2008,11,20,10,55,6.40
2008,11,20,10,56,6.40
2008,11,20,10,57,6.40
2008,11,20,10,58,6.40
2008,11,20,10,59,6.40
2008,11,20,11,00,6.40
2008,11,20,11,01,6.40
2008,11,20,11,02,6.40
2008,11,20,11,03,6.40
2008,11,20,11,04,6.40
2008,11,20,11,05,6.40
2008,11,20,11,06,6.40
2008,11,20,11,07,6.40
2008,11,20,11,08,6.40
2008,11,20,11,09,6.40
2008,11,20,11,10,6.40
2008,11,20,11,11,6.50
2008,11,20,11,12,6.50
2008,11,20,11,13,6.50
2008,11,20,11,14,6.50
2008,11,20,11,15,6.50
2008,11,20,11,16,6.50
2008,11,20,11,17,6.50
2008,11,20,11,18,6.50
2008,11,20,11,19,6.40
2008,11,20,11,20,6.40
2008,11,20,11,21,6.40
2008,11,20,11,22,6.40
2008,11,20,11,23,6.40
2008,11,20,11,24,6.50
2008,11,20,11,25,6.50
2008,11,20,11,26,6.50
2008,11,20,11,27,6.50
2008,11,20,11,28,6.50
2008,11,20,11,29,6.50
2008,11,20,11,30,6.60
2008,11,20,11,31,6.60
2008,11,20,11,32,6.50
2008,11,20,11,33,6.50
2008,11,20,11,34,6.50
2008,11,20,11,35,6.50
2008,11,20,11,36,6.50
2008,11,20,11,37,6.50
2008,11,20,11,38,6.50
2008,11,20,11,39,6.50
2008,11,20,11,40,6.50
2008,11,20,11,41,6.50
2008,11,20,11,42,6.50
2008,11,20,11,43,6.60
2008,11,20,11,44,6.60
2008,11,20,11,45,6.60
2008,11,20,11,46,6.60
2008,11,20,11,47,6.60
2008,11,20,11,48,6.60
2008,11,20,11,49,6.70
2008,11,20,11,50,6.70
2008,11,20,11,51,6.70
2008,11,20,11,52,6.70
2008,11,20,11,53,6.70
2008,11,20,11,54,6.80
2008,11,20,11,55,6.80
2008,11,20,11,56,6.80
2008,11,20,11,57,6.80
2008,11,20,11,58,6.80
2008,11,20,11,59,6.80
2008,11,20,12,00,6.90
2008,11,20,12,01,6.90
2008,11,20,12,02,7.00
2008,11,20,12,03,7.00
2008,11,20,12,04,7.10
2008,11,20,12,05,7.10
2008,11,20,12,06,7.20
2008,11,20,12,07,7.20
2008,11,20,12,08,7.20
2008,11,20,12,09,7.30
2008,11,20,12,10,7.30
2008,11,20,12,11,7.30
2008,11,20,12,12,7.40
2008,11,20,12,13,7.40
2008,11,20,12,14,7.50
2008,11,20,12,15,7.50
2008,11,20,12,16,7.50
2008,11,20,12,17,7.60
2008,11,20,12,18,7.60
2008,11,20,12,19,7.70
2008,11,20,12,20,7.70
2008,11,20,12,21,7.70
2008,11,20,12,22,7.80
2008,11,20,12,23,7.80
2008,11,20,12,24,7.90
2008,11,20,12,25,7.90
2008,11,20,12,26,7.90
2008,11,20,12,27,8.00
2008,11,20,12,28,8.00
2008,11,20,12,29,8.10
2008,11,20,12,30,8.10
2008,11,20,12,31,8.20
2008,11,20,12,32,8.20
2008,11,20,12,33,8.30
2008,11,20,12,34,8.30
2008,11,20,12,35,8.30
2008,11,20,12,36,8.40
2008,11,20,12,37,8.50
2008,11,20,12,38,8.60
2008,11,20,12,39,8.60
2008,11,20,12,40,8.80
2008,11,20,12,41,8.80
2008,11,20,12,42,8.80
2008,11,20,12,43,8.90
2008,11,20,12,44,8.90
2008,11,20,12,45,8.90
2008,11,20,12,46,8.90
2008,11,20,12,47,8.90
2008,11,20,12,48,8.90
2008,11,20,12,49,8.90
2008,11,20,12,50,8.90
2008,11,20,12,51,8.90
2008,11,20,12,52,8.90
2008,11,20,12,53,8.90
2008,11,20,12,54,8.90
2008,11,20,12,55,8.90
2008,11,20,12,56,8.90
2008,11,20,12,57,8.90
2008,11,20,12,58,8.90
2008,11,20,12,59,8.90
2008,11,20,13,00,8.80
2008,11,20,13,01,8.80
2008,11,20,13,02,8.80
2008,11,20,13,03,8.80
2008,11,20,13,04,8.80
2008,11,20,13,05,8.80
2008,11,20,13,06,8.80
2008,11,20,13,07,8.80
2008,11,20,13,08,8.80
2008,11,20,13,09,8.80
2008,11,20,13,10,8.80
2008,11,20,13,11,8.80
2008,11,20,13,12,8.80
2008,11,20,13,13,8.80
2008,11,20,13,14,8.80
2008,11,20,13,15,8.80
2008,11,20,13,16,8.80
2008,11,20,13,17,8.80
2008,11,20,13,18,8.80
2008,11,20,13,19,8.80
2008,11,20,13,20,8.80
2008,11,20,13,21,8.80
2008,11,20,13,22,8.80
2008,11,20,13,23,8.80
2008,11,20,13,24,8.80
2008,11,20,13,25,8.80
2008,11,20,13,26,8.80
2008,11,20,13,27,8.80
2008,11,20,13,28,8.80
2008,11,20,13,29,8.80
2008,11,20,13,30,8.80
2008,11,20,13,31,8.80
2008,11,20,13,32,8.80
2008,11,20,13,33,8.80
2008,11,20,13,34,8.80
2008,11,20,13,35,8.80
2008,11,20,13,36,8.90
2008,11,20,13,37,8.90
2008,11,20,13,38,8.90
2008,11,20,13,39,8.90
2008,11,20,13,40,8.90
2008,11,20,13,41,9.00
2008,11,20,13,42,9.00
2008,11,20,13,43,9.00
2008,11,20,13,44,9.00
2008,11,20,13,45,9.10
2008,11,20,13,46,9.10
2008,11,20,13,47,9.20
2008,11,20,13,48,9.20
2008,11,20,13,49,9.20
2008,11,20,13,50,9.20
2008,11,20,13,51,9.20
2008,11,20,13,52,9.20
2008,11,20,13,53,9.20
2008,11,20,13,54,9.20
2008,11,20,13,55,9.20
2008,11,20,13,56,9.20
2008,11,20,13,57,9.20
2008,11,20,13,58,9.20
2008,11,20,13,59,9.20
2008,11,20,14,00,9.20
2008,11,20,14,01,9.20
2008,11,20,14,02,9.20
2008,11,20,14,03,9.20
2008,11,20,14,04,9.20
2008,11,20,14,05,9.20
2008,11,20,14,06,9.20
2008,11,20,14,07,9.20
2008,11,20,14,08,9.20
2008,11,20,14,09,9.20
2008,11,20,14,10,9.20
2008,11,20,14,11,9.20
2008,11,20,14,12,9.20
2008,11,20,14,13,9.20
2008,11,20,14,14,9.10
2008,11,20,14,15,9.10
2008,11,20,14,16,9.10
2008,11,20,14,17,9.10
2008,11,20,14,18,9.10
2008,11,20,14,19,9.10
2008,11,20,14,20,9.10
2008,11,20,14,21,9.00
2008,11,20,14,22,9.00
2008,11,20,14,23,8.90
2008,11,20,14,24,8.90
2008,11,20,14,25,8.90
2008,11,20,14,26,8.90
2008,11,20,14,27,8.80
2008,11,20,14,28,8.80
2008,11,20,14,29,8.80
2008,11,20,14,30,8.80
2008,11,20,14,31,8.80
2008,11,20,14,32,8.90
2008,11,20,14,33,8.90
2008,11,20,14,34,8.90
2008,11,20,14,35,8.90
2008,11,20,14,36,8.90
2008,11,20,14,37,8.90
2008,11,20,14,38,8.90
2008,11,20,14,39,8.90
2008,11,20,14,40,8.90
2008,11,20,14,41,8.90
2008,11,20,14,42,8.90
2008,11,20,14,43,9.00
2008,11,20,14,44,9.00
2008,11,20,14,45,8.90
2008,11,20,14,46,8.90
2008,11,20,14,47,8.90
2008,11,20,14,48,8.90
2008,11,20,14,49,8.90
2008,11,20,14,50,8.90
2008,11,20,14,51,8.90
2008,11,20,14,52,8.80
2008,11,20,14,53,8.80
2008,11,20,14,54,8.80
2008,11,20,14,55,8.80
2008,11,20,14,56,8.80
2008,11,20,14,57,8.90
2008,11,20,14,58,8.90
2008,11,20,14,59,8.90
2008,11,20,15,00,8.90
2008,11,20,15,01,8.90
2008,11,20,15,02,8.90
2008,11,20,15,03,8.90
2008,11,20,15,04,9.00
2008,11,20,15,05,9.00
2008,11,20,15,06,9.00
2008,11,20,15,07,9.00
2008,11,20,15,08,9.00
2008,11,20,15,09,9.00
2008,11,20,15,10,9.00
2008,11,20,15,11,9.00
2008,11,20,15,12,9.10
2008,11,20,15,13,9.10
2008,11,20,15,14,9.10
2008,11,20,15,15,9.10
2008,11,20,15,16,9.10
2008,11,20,15,17,9.10
2008,11,20,15,18,9.00
2008,11,20,15,19,9.00
2008,11,20,15,20,9.00
2008,11,20,15,21,8.90
2008,11,20,15,22,8.90
2008,11,20,15,23,8.90
2008,11,20,15,24,8.80
2008,11,20,15,25,8.80
2008,11,20,15,26,8.70
2008,11,20,15,27,8.60
2008,11,20,15,28,8.50
2008,11,20,15,29,8.50
2008,11,20,15,30,8.40
2008,11,20,15,31,8.30
2008,11,20,15,32,8.30
2008,11,20,15,33,8.30
2008,11,20,15,34,8.30
2008,11,20,15,35,8.30
2008,11,20,15,36,8.30
2008,11,20,15,37,8.30
2008,11,20,15,38,8.30
2008,11,20,15,39,8.30
2008,11,20,15,40,8.30
2008,11,20,15,41,8.30
2008,11,20,15,42,8.30
2008,11,20,15,43,8.30
2008,11,20,15,44,8.20
2008,11,20,15,45,8.20
2008,11,20,15,46,8.20
2008,11,20,15,47,8.10
2008,11,20,15,48,8.00
2008,11,20,15,49,8.00
2008,11,20,15,50,8.00
2008,11,20,15,51,7.90
2008,11,20,15,52,7.90
2008,11,20,15,53,7.80
2008,11,20,15,54,7.80
2008,11,20,15,55,7.80
2008,11,20,15,56,7.70
2008,11,20,15,57,7.70
2008,11,20,15,58,7.70
2008,11,20,15,59,7.70
2008,11,20,16,00,7.70
2008,11,20,16,01,7.70
2008,11,20,16,02,7.80
2008,11,20,16,03,7.80
2008,11,20,16,04,7.80
2008,11,20,16,05,7.80
2008,11,20,16,06,7.80
2008,11,20,16,07,7.80
2008,11,20,16,08,7.80
2008,11,20,16,09,7.80
2008,11,20,16,10,7.80
2008,11,20,16,11,7.70
2008,11,20,16,12,7.70
2008,11,20,16,13,7.70
2008,11,20,16,14,7.70
2008,11,20,16,15,7.70
2008,11,20,16,16,7.70
2008,11,20,16,17,7.70
2008,11,20,16,18,7.70
2008,11,20,16,19,7.70
2008,11,20,16,20,7.70
2008,11,20,16,21,7.70
2008,11,20,16,22,7.70
2008,11,20,16,23,7.60
2008,11,20,16,24,7.60
2008,11,20,16,25,7.60
2008,11,20,16,26,7.60
2008,11,20,16,27,7.60
2008,11,20,16,28,7.60
2008,11,20,16,29,7.60
2008,11,20,16,30,7.60
2008,11,20,16,31,7.60
2008,11,20,16,32,7.60
2008,11,20,16,33,7.60
2008,11,20,16,34,7.60
2008,11,20,16,35,7.60
2008,11,20,16,36,7.60
2008,11,20,16,37,7.50
2008,11,20,16,38,7.50
2008,11,20,16,39,7.50
2008,11,20,16,40,7.50
2008,11,20,16,41,7.50
2008,11,20,16,42,7.50
2008,11,20,16,43,7.50
2008,11,20,16,44,7.50
2008,11,20,16,45,7.40
2008,11,20,16,46,7.50
2008,11,20,16,47,7.50
2008,11,20,16,48,7.50
2008,11,20,16,49,7.50
2008,11,20,16,50,7.50
2008,11,20,16,51,7.40
2008,11,20,16,52,7.50
2008,11,20,16,53,7.50
2008,11,20,16,54,7.60
2008,11,20,16,55,7.60
2008,11,20,16,56,7.60
2008,11,20,16,57,7.60
2008,11,20,16,58,7.60
2008,11,20,16,59,7.60
2008,11,20,17,00,7.60
2008,11,20,17,01,7.60
2008,11,20,17,02,7.60
2008,11,20,17,03,7.70
2008,11,20,17,04,7.70
2008,11,20,17,05,7.80
2008,11,20,17,06,7.80
2008,11,20,17,07,7.80
2008,11,20,17,08,7.80
2008,11,20,17,09,7.80
2008,11,20,17,10,7.80
2008,11,20,17,11,7.80
2008,11,20,17,12,7.80
2008,11,20,17,13,7.80
2008,11,20,17,14,7.70
2008,11,20,17,15,7.70
2008,11,20,17,16,7.70
2008,11,20,17,17,7.60
2008,11,20,17,18,7.60
2008,11,20,17,19,7.50
2008,11,20,17,20,7.50
2008,11,20,17,21,7.40
2008,11,20,17,22,7.40
2008,11,20,17,23,7.40
2008,11,20,17,24,7.40
2008,11,20,17,25,7.40
2008,11,20,17,26,7.40
2008,11,20,17,27,7.40
2008,11,20,17,28,7.40
2008,11,20,17,29,7.30
2008,11,20,17,30,7.30
2008,11,20,17,31,7.30
2008,11,20,17,32,7.30
2008,11,20,17,33,7.30
2008,11,20,17,34,7.20
2008,11,20,17,35,7.20
2008,11,20,17,36,7.20
2008,11,20,17,37,7.20
2008,11,20,17,38,7.20
2008,11,20,17,39,7.20
2008,11,20,17,40,7.20
2008,11,20,17,41,7.20
2008,11,20,17,42,7.30
2008,11,20,17,43,7.30
2008,11,20,17,44,7.40
2008,11,20,17,45,7.50
2008,11,20,17,46,7.50
2008,11,20,17,47,7.60
2008,11,20,17,48,7.60
2008,11,20,17,49,7.70
2008,11,20,17,50,7.70
2008,11,20,17,51,7.80
2008,11,20,17,52,7.80
2008,11,20,17,53,7.90
2008,11,20,17,54,7.90
2008,11,20,17,55,7.90
2008,11,20,17,56,8.00
2008,11,20,17,57,7.90
2008,11,20,17,58,7.90
2008,11,20,17,59,7.80
2008,11,20,18,00,7.80
2008,11,20,18,01,7.80
2008,11,20,18,02,7.70
2008,11,20,18,03,7.70
2008,11,20,18,04,7.70
2008,11,20,18,05,7.70
2008,11,20,18,06,7.70
2008,11,20,18,07,7.70
2008,11,20,18,08,7.70
2008,11,20,18,09,7.80
2008,11,20,18,10,7.80
2008,11,20,18,11,7.90
2008,11,20,18,12,8.00
2008,11,20,18,13,8.10
2008,11,20,18,14,8.10
2008,11,20,18,15,8.20
2008,11,20,18,16,8.20
2008,11,20,18,17,8.30
2008,11,20,18,18,8.30
2008,11,20,18,19,8.40
2008,11,20,18,20,8.40
2008,11,20,18,21,8.50
2008,11,20,18,22,8.50
2008,11,20,18,23,8.50
2008,11,20,18,24,8.50
2008,11,20,18,25,8.60
2008,11,20,18,26,8.60
2008,11,20,18,27,8.50
2008,11,20,18,28,8.50
2008,11,20,18,29,8.50
2008,11,20,18,30,8.50
2008,11,20,18,31,8.50
2008,11,20,18,32,8.50
2008,11,20,18,33,8.50
2008,11,20,18,34,8.60
2008,11,20,18,35,8.60
2008,11,20,18,36,8.60
2008,11,20,18,37,8.70
2008,11,20,18,38,8.70
2008,11,20,18,39,8.70
2008,11,20,18,40,8.70
2008,11,20,18,41,8.70
2008,11,20,18,42,8.70
2008,11,20,18,43,8.80
2008,11,20,18,44,8.70
2008,11,20,18,45,8.70
2008,11,20,18,46,8.70
2008,11,20,18,47,8.70
2008,11,20,18,48,8.70
2008,11,20,18,49,8.70
2008,11,20,18,50,8.70
2008,11,20,18,51,8.70
2008,11,20,18,52,8.70
2008,11,20,18,53,8.70
2008,11,20,18,54,8.70
2008,11,20,18,55,8.70
2008,11,20,18,56,8.70
2008,11,20,18,57,8.70
2008,11,20,18,58,8.70
2008,11,20,18,59,8.60
2008,11,20,19,00,8.60
2008,11,20,19,01,8.60
2008,11,20,19,02,8.60
2008,11,20,19,03,8.50
2008,11,20,19,04,8.50
2008,11,20,19,05,8.50
2008,11,20,19,06,8.60
2008,11,20,19,07,8.60
2008,11,20,19,08,8.60
2008,11,20,19,09,8.60
2008,11,20,19,10,8.50
2008,11,20,19,11,8.50
2008,11,20,19,12,8.50
2008,11,20,19,13,8.60
2008,11,20,19,14,8.60
2008,11,20,19,15,8.60
2008,11,20,19,16,8.60
2008,11,20,19,17,8.60
2008,11,20,19,18,8.60
2008,11,20,19,19,8.70
2008,11,20,19,20,8.70
2008,11,20,19,21,8.70
2008,11,20,19,22,8.70
2008,11,20,19,23,8.70
2008,11,20,19,24,8.70
2008,11,20,19,25,8.60
2008,11,20,19,26,8.60
2008,11,20,19,27,8.60
2008,11,20,19,28,8.60
2008,11,20,19,29,8.60
2008,11,20,19,30,8.60
2008,11,20,19,31,8.70
2008,11,20,19,32,8.70
2008,11,20,19,33,8.70
2008,11,20,19,34,8.70
2008,11,20,19,35,8.70
2008,11,20,19,36,8.70
2008,11,20,19,37,8.70
2008,11,20,19,38,8.60
2008,11,20,19,39,8.70
2008,11,20,19,40,8.70
2008,11,20,19,41,8.70
2008,11,20,19,42,8.60
2008,11,20,19,43,8.50
2008,11,20,19,44,8.50
2008,11,20,19,45,8.40
2008,11,20,19,46,8.50
2008,11,20,19,47,8.60
2008,11,20,19,48,8.60
2008,11,20,19,49,8.60
2008,11,20,19,50,8.60
2008,11,20,19,51,8.60
2008,11,20,19,52,8.60
2008,11,20,19,53,8.60
2008,11,20,19,54,8.50
2008,11,20,19,55,8.50
2008,11,20,19,56,8.50
2008,11,20,19,57,8.40
2008,11,20,19,58,8.40
2008,11,20,19,59,8.30
2008,11,20,20,00,8.30
2008,11,20,20,01,8.30
2008,11,20,20,02,8.30
2008,11,20,20,03,8.40
2008,11,20,20,04,8.40
2008,11,20,20,05,8.40
2008,11,20,20,06,8.40
2008,11,20,20,07,8.30
2008,11,20,20,08,8.30
2008,11,20,20,09,8.20
2008,11,20,20,10,8.20
2008,11,20,20,11,8.20
2008,11,20,20,12,8.20
2008,11,20,20,13,8.20
2008,11,20,20,14,8.20
2008,11,20,20,15,8.20
2008,11,20,20,16,8.30
2008,11,20,20,17,8.30
2008,11,20,20,18,8.30
2008,11,20,20,19,8.30
2008,11,20,20,20,8.20
2008,11,20,20,21,8.20
2008,11,20,20,22,8.10
2008,11,20,20,23,8.10
2008,11,20,20,24,8.10
2008,11,20,20,25,8.00
2008,11,20,20,26,7.90
2008,11,20,20,27,7.90
2008,11,20,20,28,7.90
2008,11,20,20,29,7.90
2008,11,20,20,30,7.90
2008,11,20,20,31,7.90
2008,11,20,20,32,8.00
2008,11,20,20,33,8.00
2008,11,20,20,34,8.00
2008,11,20,20,35,8.00
2008,11,20,20,36,8.00
2008,11,20,20,37,7.90
2008,11,20,20,38,7.90
2008,11,20,20,39,7.80
2008,11,20,20,40,7.80
2008,11,20,20,41,7.70
2008,11,20,20,42,7.60
2008,11,20,20,43,7.60
2008,11,20,20,44,7.50
2008,11,20,20,45,7.50
2008,11,20,20,46,7.40
2008,11,20,20,47,7.40
2008,11,20,20,48,7.40
2008,11,20,20,49,7.30
2008,11,20,20,50,7.30
2008,11,20,20,51,7.30
2008,11,20,20,52,7.20
2008,11,20,20,53,7.20
2008,11,20,20,54,7.20
2008,11,20,20,55,7.20
2008,11,20,20,56,7.20
2008,11,20,20,57,7.30
2008,11,20,20,58,7.40
2008,11,20,20,59,7.30
2008,11,20,21,00,7.30
2008,11,20,21,01,7.40
2008,11,20,21,02,7.70
2008,11,20,21,03,7.80
2008,11,20,21,04,7.90
2008,11,20,21,05,7.90
2008,11,20,21,06,7.90
2008,11,20,21,07,7.80
2008,11,20,21,08,7.80
2008,11,20,21,09,7.80
2008,11,20,21,10,7.80
2008,11,20,21,11,7.90
2008,11,20,21,12,8.10
2008,11,20,21,13,8.30
2008,11,20,21,14,8.50
2008,11,20,21,15,8.60
2008,11,20,21,16,8.60
2008,11,20,21,17,8.60
2008,11,20,21,18,8.60
2008,11,20,21,19,8.70
2008,11,20,21,20,8.70
2008,11,20,21,21,8.70
2008,11,20,21,22,8.70
2008,11,20,21,23,8.70
2008,11,20,21,24,8.70
2008,11,20,21,25,8.80
2008,11,20,21,26,8.70
2008,11,20,21,27,8.60
2008,11,20,21,28,8.50
2008,11,20,21,29,8.50
2008,11,20,21,30,8.40
2008,11,20,21,31,8.40
2008,11,20,21,32,8.40
2008,11,20,21,33,8.30
2008,11,20,21,34,8.30
2008,11,20,21,35,8.20
2008,11,20,21,36,8.20
2008,11,20,21,37,8.10
2008,11,20,21,38,8.10
2008,11,20,21,39,8.20
2008,11,20,21,40,8.20
2008,11,20,21,41,8.20
2008,11,20,21,42,8.20
2008,11,20,21,43,8.20
2008,11,20,21,44,8.20
2008,11,20,21,45,8.20
2008,11,20,21,46,8.20
2008,11,20,21,47,8.20
2008,11,20,21,48,8.20
2008,11,20,21,49,8.20
2008,11,20,21,50,8.10
2008,11,20,21,51,8.10
2008,11,20,21,52,8.10
2008,11,20,21,53,8.10
2008,11,20,21,54,8.00
2008,11,20,21,55,8.00
2008,11,20,21,56,7.90
2008,11,20,21,57,7.90
2008,11,20,21,58,7.90
2008,11,20,21,59,7.80
2008,11,20,22,00,7.80
2008,11,20,22,01,7.80
2008,11,20,22,02,7.80
2008,11,20,22,03,7.90
2008,11,20,22,04,7.90
2008,11,20,22,05,7.90
2008,11,20,22,06,7.90
2008,11,20,22,07,7.90
2008,11,20,22,08,8.00
2008,11,20,22,09,8.10
2008,11,20,22,10,8.10
2008,11,20,22,11,8.10
2008,11,20,22,12,8.10
2008,11,20,22,13,8.10
2008,11,20,22,14,8.10
2008,11,20,22,15,8.10
2008,11,20,22,16,8.10
2008,11,20,22,17,8.10
2008,11,20,22,18,8.00
2008,11,20,22,19,7.90
2008,11,20,22,20,7.90
2008,11,20,22,21,7.80
2008,11,20,22,22,7.80
2008,11,20,22,23,7.80
2008,11,20,22,24,7.80
2008,11,20,22,25,7.80
2008,11,20,22,26,7.70
2008,11,20,22,27,7.70
2008,11,20,22,28,7.60
2008,11,20,22,29,7.60
2008,11,20,22,30,7.60
2008,11,20,22,31,7.50